Hourly Weather Acajete

Today, 24 January, Sunday

Time Temperature Precipitation Wind Pressure Humidity
00:00 +13°C° 0 mm 1 mps 565 mmHg 59%
01:00 +13°C° 0 mm 1 mps 564 mmHg 61%
02:00 +13°C° 0 mm 1 mps 564 mmHg 63%
03:00 +12°C° 0 mm 1 mps 564 mmHg 64%
04:00 +12°C° 0 mm 1 mps 564 mmHg 64%
05:00 +12°C° 0 mm 1 mps 564 mmHg 65%
06:00 +13°C° 0 mm 1 mps 565 mmHg 62%
07:00 +14°C° 0 mm 1 mps 565 mmHg 58%
08:00 +15°C° 0 mm 1 mps 566 mmHg 55%
09:00 +18°C° 0 mm 1 mps 567 mmHg 48%
10:00 +20°C° 0 mm 1 mps 567 mmHg 40%
11:00 +20°C° 0 mm 2 mps 568 mmHg 33%
12:00 +21°C° 0 mm 2 mps 568 mmHg 30%
13:00 +23°C° 0 mm 2 mps 567 mmHg 27%
14:00 +22°C° 0 mm 3 mps 567 mmHg 24%
15:00 +20°C° 0 mm 3 mps 566 mmHg 33%
16:00 +19°C° 0 mm 3 mps 565 mmHg 42%
17:00 +17°C° 0 mm 3 mps 565 mmHg 50%
18:00 +16°C° 0 mm 2 mps 564 mmHg 54%
19:00 +15°C° 0 mm 2 mps 564 mmHg 59%
20:00 +14°C° 0 mm 2 mps 564 mmHg 63%
21:00 +13°C° 0 mm 2 mps 564 mmHg 64%
22:00 +13°C° 0 mm 1 mps 564 mmHg 66%
23:00 +13°C° 0 mm 1 mps 564 mmHg 67%

Tomorrow, 25 January, Monday

Time Temperature Precipitation Wind Pressure Humidity
00:00 +12°C° 0 mm 1 mps 563 mmHg 70%
01:00 +12°C° 0 mm 2 mps 563 mmHg 73%
02:00 +10°C° 0 mm 2 mps 562 mmHg 77%
03:00 +10°C° 0 mm 2 mps 562 mmHg 80%
04:00 +10°C° 0 mm 2 mps 562 mmHg 84%
05:00 +9°C° 0 mm 2 mps 562 mmHg 87%
06:00 +12°C° 0 mm 1 mps 563 mmHg 81%
07:00 +13°C° 0 mm 1 mps 564 mmHg 74%
08:00 +14°C° 0 mm 1 mps 565 mmHg 68%
09:00 +16°C° 0 mm 1 mps 566 mmHg 58%
10:00 +19°C° 0 mm 1 mps 566 mmHg 47%
11:00 +21°C° 0 mm 1 mps 567 mmHg 37%
12:00 +21°C° 0 mm 2 mps 567 mmHg 35%
13:00 +21°C° 0 mm 3 mps 566 mmHg 33%
14:00 +22°C° 0 mm 3 mps 566 mmHg 31%
15:00 +20°C° 0 mm 3 mps 565 mmHg 40%
16:00 +19°C° 0 mm 3 mps 564 mmHg 49%
17:00 +17°C° 0 mm 3 mps 564 mmHg 58%
18:00 +16°C° 0 mm 2 mps 564 mmHg 62%
19:00 +15°C° 0 mm 2 mps 564 mmHg 65%
20:00 +14°C° 0 mm 1 mps 564 mmHg 69%
21:00 +13°C° 0 mm 1 mps 564 mmHg 70%
22:00 +13°C° 0 mm 1 mps 563 mmHg 70%
23:00 +12°C° 0 mm 1 mps 563 mmHg 71%

Day after tomorrow, 26 January, Tuesday

Time Temperature Precipitation Wind Pressure Humidity
00:00 +12°C° 0 mm 1 mps 563 mmHg 72%
01:00 +12°C° 0 mm 1 mps 563 mmHg 72%
02:00 +11°C° 0 mm 1 mps 563 mmHg 73%
03:00 +10°C° 0 mm 2 mps 562 mmHg 75%
04:00 +10°C° 0 mm 2 mps 562 mmHg 77%
05:00 +9°C° 0 mm 2 mps 562 mmHg 79%
06:00 +10°C° 0 mm 2 mps 563 mmHg 75%
07:00 +13°C° 0 mm 2 mps 564 mmHg 71%
08:00 +14°C° 0 mm 2 mps 565 mmHg 67%
09:00 +16°C° 0 mm 2 mps 566 mmHg 58%
10:00 +18°C° 0 mm 2 mps 567 mmHg 50%
11:00 +20°C° 0 mm 2 mps 567 mmHg 41%
12:00 +21°C° 0 mm 3 mps 567 mmHg 40%
13:00 +21°C° 0 mm 4 mps 567 mmHg 39%
14:00 +22°C° 0 mm 4 mps 566 mmHg 38%
15:00 +20°C° 0.2 mm 4 mps 566 mmHg 44%
16:00 +19°C° 0.2 mm 3 mps 565 mmHg 51%
17:00 +17°C° 0.2 mm 3 mps 564 mmHg 57%
18:00 +16°C° 0.1 mm 2 mps 564 mmHg 61%
19:00 +15°C° 0.1 mm 2 mps 564 mmHg 65%
20:00 +14°C° 0.1 mm 2 mps 564 mmHg 69%
21:00 +13°C° 0 mm 2 mps 564 mmHg 70%
22:00 +13°C° 0 mm 1 mps 564 mmHg 71%
23:00 +13°C° 0 mm 1 mps 564 mmHg 72%

27 January, Wednesday

Time Temperature Precipitation Wind Pressure Humidity
00:00 +12°C° 0 mm 1 mps 563 mmHg 73%
01:00 +12°C° 0 mm 1 mps 563 mmHg 73%
02:00 +12°C° 0 mm 1 mps 563 mmHg 74%
03:00 +11°C° 0 mm 1 mps 563 mmHg 74%
04:00 +11°C° 0 mm 1 mps 563 mmHg 74%
05:00 +11°C° 0 mm 1 mps 563 mmHg 75%
06:00 +13°C° 0 mm 1 mps 565 mmHg 68%
07:00 +14°C° 0 mm 1 mps 566 mmHg 61%
08:00 +16°C° 0 mm 1 mps 568 mmHg 54%
09:00 +18°C° 0 mm 2 mps 568 mmHg 49%
10:00 +19°C° 0 mm 3 mps 569 mmHg 45%
11:00 +20°C° 0 mm 4 mps 570 mmHg 40%
12:00 +20°C° 0 mm 4 mps 569 mmHg 46%
13:00 +19°C° 0 mm 4 mps 568 mmHg 51%
14:00 +19°C° 0 mm 5 mps 568 mmHg 57%
15:00 +16°C° 0.3 mm 5 mps 567 mmHg 66%
16:00 +14°C° 0.3 mm 5 mps 567 mmHg 76%
17:00 +12°C° 0.3 mm 5 mps 566 mmHg 85%
18:00 +12°C° 0.1 mm 4 mps 567 mmHg 86%
19:00 +11°C° 0.1 mm 4 mps 567 mmHg 87%
20:00 +11°C° 0.1 mm 4 mps 568 mmHg 88%
21:00 +11°C° 0.1 mm 3 mps 568 mmHg 89%
22:00 +10°C° 0.1 mm 3 mps 567 mmHg 90%
23:00 +10°C° 0.1 mm 3 mps 567 mmHg 92%

28 January, Thursday

Time Temperature Precipitation Wind Pressure Humidity
00:00 +10°C° 0 mm 3 mps 567 mmHg 90%
01:00 +9°C° 0 mm 3 mps 567 mmHg 89%
02:00 +9°C° 0 mm 2 mps 567 mmHg 88%
03:00 +9°C° 0 mm 2 mps 567 mmHg 89%
04:00 +9°C° 0 mm 2 mps 567 mmHg 89%
05:00 +9°C° 0 mm 2 mps 567 mmHg 90%
06:00 +9°C° 0 mm 2 mps 568 mmHg 88%
07:00 +9°C° 0 mm 2 mps 568 mmHg 87%
08:00 +10°C° 0 mm 2 mps 569 mmHg 86%
09:00 +10°C° 0 mm 2 mps 569 mmHg 82%
10:00 +12°C° 0 mm 2 mps 569 mmHg 78%
11:00 +13°C° 0 mm 2 mps 569 mmHg 74%

29 January, Friday

Time Temperature Precipitation Wind Pressure Humidity
Show more